EW2244 Weather Reports


time (UTC)temp
C
wind
direction
speed
KPH
gust
KPH
rain 1hr
cm
rain 24hr
cm
rain mn
cm
humidity
%
barometer
mb
20260505224157 11 5 0.0 0.0 0.00 5.99 0.00 96 1012.4
20260505223141 11 5 0.0 0.0 0.00 5.99 0.00 96 1012.4
20260505222127 11 5 0.0 0.0 0.00 5.99 0.00 96 1012.4
20260505221136 11 5 0.0 1.6 0.00 5.99 0.00 96 1012.3
20260505220143 11 5 0.0 4.8 0.00 5.99 0.00 96 1012.3
20260505215129 11 5 1.6 6.4 0.00 5.99 1.52 96 1012.4
20260505214135 11 11 0.0 6.4 0.00 5.99 1.52 96 1012.5
20260505213158 11 11 0.0 3.2 0.00 5.99 1.52 96 1012.6
20260505212124 11 11 0.0 1.6 0.00 5.99 1.52 96 1012.7
20260505211129 11 11 0.0 1.6 0.00 5.99 1.52 96 1012.9
20260505210128 11 11 0.0 1.6 0.00 5.99 1.52 96 1012.9
20260505205127 11 11 0.0 3.2 0.00 5.99 1.52 96 1012.9
20260505204135 11 11 0.0 1.6 0.00 5.99 1.52 96 1013.0
20260505203140 11 11 0.0 4.8 0.00 5.99 1.52 96 1012.9
20260505202122 11 11 0.0 1.6 0.00 5.99 1.52 96 1013.1
20260505201124 11 11 0.0 3.2 0.00 5.99 1.52 96 1013.1
20260505200132 11 11 0.0 4.8 0.00 5.99 1.52 95 1013.0
20260505195139 11 11 0.0 1.6 0.00 5.99 1.52 95 1013.0
20260505194137 11 11 0.0 3.2 0.00 5.99 1.52 95 1012.9
20260505193121 11 11 0.0 3.2 0.00 5.99 1.52 96 1012.8
20260505192132 11 11 1.6 4.8 0.00 5.99 1.52 95 1012.8
20260505191137 11 11 0.0 4.8 0.00 5.99 1.52 96 1012.8
20260505190122 11 11 0.0 3.2 0.00 5.99 1.52 95 1012.7
20260505185122 11 11 1.6 4.8 0.00 5.99 1.52 95 1012.5
20260505184131 11 11 0.0 3.2 0.00 5.99 1.52 96 1012.5
20260505183136 11 11 0.0 3.2 0.00 5.99 1.52 96 1012.5
20260505182201 11 11 0.0 3.2 0.00 5.99 1.52 96 1012.5
20260505181202 11 11 0.0 3.2 0.10 5.99 1.52 96 1012.5
20260505180128 11 11 1.6 4.8 0.10 5.99 1.52 95 1012.5
20260505175127 11 11 0.0 3.2 0.10 5.99 1.52 95 1012.5
20260505174129 11 11 0.0 4.8 0.10 5.99 1.52 95 1012.5
20260505173132 11 11 0.0 4.8 0.10 5.99 1.52 95 1012.5
20260505172136 11 11 1.6 4.8 0.10 5.99 1.52 95 1012.5
20260505171123 12 11 1.6 3.2 0.00 5.89 1.50 95 1012.5
20260505170150 12 11 0.0 1.6 0.00 5.89 1.50 95 1012.7
20260505165154 12 11 0.0 4.8 0.00 5.89 1.50 95 1012.7
20260505164140 12 11 1.6 3.2 0.00 5.89 1.50 95 1012.8
20260505163128 12 14 1.6 6.4 0.00 5.89 1.50 95 1012.8
20260505162129 12 19 1.6 6.4 0.00 5.89 1.50 95 1012.8
20260505161130 12 9 0.0 6.4 0.00 5.89 1.50 94 1012.8
20260505160135 12 26 1.6 9.7 0.00 5.89 1.50 94 1012.8
20260505153127 12 28 0.0 1.6 0.00 5.89 1.50 94 1013.1
20260505152133 12 28 1.6 4.8 0.00 5.89 1.50 94 1013.0
20260505151140 12 28 0.0 3.2 0.00 5.89 1.50 94 1013.1
20260505150141 12 28 0.0 3.2 0.00 5.89 1.50 94 1013.0
20260505140138 12 28 1.6 9.7 0.00 5.89 1.50 95 1013.1
20260505130200 11 5 1.6 6.4 0.00 5.79 1.47 94 1013.5
20260505124148 12 360 1.6 4.8 0.10 5.79 1.47 93 1013.7
20260505123133 12 105 0.0 4.8 0.10 5.79 1.47 93 1013.7
20260505122143 12 37 0.0 8.0 0.10 5.79 1.47 93 1013.5
20260505121127 12 22 1.6 8.0 0.10 5.79 1.47 93 1013.5
20260505120132 12 44 1.6 8.0 0.10 5.79 1.47 93 1013.5
20260505115139 12 28 1.6 9.7 0.00 5.69 1.45 93 1013.7
20260505114128 12 36 1.6 6.4 0.00 5.69 1.45 93 1013.8
20260505113134 12 24 1.6 8.0 0.10 5.69 1.45 92 1013.7
20260505112158 12 45 1.6 8.0 0.10 5.69 1.45 92 1013.7
20260505111123 12 345 3.2 8.0 0.10 5.69 1.45 91 1013.8
20260505110149 12 360 1.6 12.9 0.10 5.69 1.45 90 1013.8
20260505102148 12 33 3.2 8.0 0.00 5.59 1.42 91 1013.9
20260505101136 12 22 3.2 12.9 0.10 5.59 1.42 91 1013.9
20260505100141 12 49 4.8 9.7 0.20 5.59 1.42 91 1014.0
20260505095128 12 109 1.6 8.0 0.30 5.59 1.42 92 1014.0
20260505094133 12 26 3.2 9.7 0.51 5.59 1.42 91 1014.1
20260505093123 12 43 4.8 12.9 0.61 5.59 1.42 90 1014.0
20260505092127 12 5 3.2 14.5 0.61 5.59 1.42 91 1014.0
20260505091133 12 18 1.6 9.7 0.61 5.51 1.40 92 1014.0
20260505090158 12 46 1.6 9.7 0.61 5.41 1.37 93 1014.0
20260505085124 12 347 3.2 9.7 0.51 5.31 1.35 93 1013.9
20260505084130 11 20 1.6 8.0 0.30 5.11 1.30 94 1013.9
20260505083156 11 27 3.2 14.5 0.41 5.00 1.27 93 1013.9
20260505082142 11 38 3.2 9.7 0.51 5.00 1.27 94 1013.8
20260505081130 11 11 3.2 8.0 0.51 4.90 1.24 94 1013.7
20260505080137 11 34 3.2 14.5 0.61 4.80 1.22 94 1013.7
20260505075141 11 33 4.8 14.5 0.79 4.80 1.22 94 1013.6
20260505074128 11 25 9.7 16.1 0.99 4.80 1.22 94 1013.7
20260505073137 11 355 3.2 9.7 1.09 4.60 1.17 94 1013.7
20260505072129 11 49 3.2 9.7 1.50 4.50 1.14 94 1013.5
20260505071153 11 11 4.8 14.5 1.80 4.39 1.12 94 1013.5
20260505070139 11 34 4.8 12.9 1.80 4.19 1.07 94 1013.5
20260505065124 11 67 1.6 9.7 1.80 3.91 0.99 94 1013.5
20260505064155 11 355 3.2 9.7 1.91 3.81 0.97 94 1013.4
20260505063136 11 234 1.6 9.7 1.70 3.40 0.86 94 1013.4
20260505062142 11 38 1.6 8.0 1.70 3.10 0.79 93 1013.4
20260505061127 11 115 1.6 17.7 1.40 2.59 0.66 93 1013.2
20260505060138 11 5 3.2 14.5 1.40 2.39 0.61 93 1013.3
20260505055124 11 34 1.6 8.0 1.19 2.11 0.53 93 1013.2
20260505054131 11 49 1.6 9.7 1.19 1.91 0.48 93 1013.3
20260505053136 11 18 0.0 6.4 1.19 1.70 0.43 92 1013.2
20260505052128 11 68 0.0 3.2 0.99 1.40 0.36 91 1013.1
20260505051134 11 68 0.0 8.0 0.79 1.19 0.30 89 1013.0
20260505050141 11 75 4.8 14.5 0.71 0.99 0.25 88 1012.9
20260505041130 12 244 1.6 3.2 0.41 0.41 0.10 83 1012.9
20260505040154 12 244 0.0 3.2 0.30 0.30 0.08 82 1012.8
20260505035143 12 244 1.6 4.8 0.20 0.20 0.05 81 1012.9
20260505034128 12 245 0.0 8.0 0.10 0.10 0.03 79 1012.9
20260505033135 13 70 3.2 4.8 0.00 0.00 0.00 78 1012.9
20260505032139 13 235 0.0 6.4 0.00 0.00 0.00 72 1012.9
20260505031130 13 257 3.2 6.4 0.00 0.00 0.00 70 1012.8
20260505030136 13 350 0.0 3.2 0.00 0.00 0.00 68 1012.8
20260505025203 13 345 0.0 1.6 0.00 0.00 0.00 70 1012.9
20260505024142 13 345 0.0 1.6 0.00 0.00 0.00 69 1013.0
20260505023138 13 348 0.0 4.8 0.00 0.00 0.00 66 1013.2
20260505022146 14 271 0.0 1.6 0.00 0.00 0.00 69 1013.2
20260505021129 14 271 0.0 1.6 0.00 0.00 0.00 69 1013.4
20260505020137 14 271 0.0 1.6 0.00 0.00 0.00 66 1013.7
20260505015144 15 271 1.6 3.2 0.00 0.00 0.00 62 1013.5
20260505014133 15 285 1.6 4.8 0.00 0.00 0.00 62 1013.5
20260505013141 15 250 1.6 6.4 0.00 0.00 0.00 61 1013.8
20260505012127 14 242 1.6 4.8 0.00 0.00 0.00 62 1013.9
20260505011134 14 234 0.0 4.8 0.00 0.00 0.00 63 1014.1
20260505010124 14 233 0.0 1.6 0.00 0.00 0.00 64 1014.2
20260505005131 14 233 1.6 3.2 0.00 0.00 0.00 63 1014.4
20260505004134 14 220 0.0 1.6 0.00 0.00 0.00 69 1014.6
20260505003142 14 220 0.0 3.2 0.00 0.00 0.00 71 1014.7
20260505002152 14 220 0.0 3.2 0.00 0.00 0.00 70 1014.9
20260505001136 14 220 0.0 3.2 0.00 0.00 0.00 69 1015.1
20260505000141 14 220 0.0 1.6 0.00 0.00 0.00 69 1015.2
20260504235125 14 220 0.0 0.0 0.00 0.00 0.00 68 1015.3
20260504234135 15 220 0.0 0.0 0.00 0.00 0.00 68 1015.5
20260504233142 15 220 0.0 1.6 0.00 0.00 0.00 69 1015.5
20260504232127 15 220 0.0 0.0 0.00 0.00 0.00 68 1015.6
20260504231135 14 220 0.0 0.0 0.00 0.00 0.00 67 1015.8
20260504230125 14 220 0.0 0.0 0.00 0.00 0.00 67 1015.8
20260504225131 15 220 0.0 0.0 0.00 0.00 0.00 68 1015.8